Chadron, NE

2:04 AM MDT on October 17, 2017 (GMT -0600)
Chadron Municipal

Weather History for KCDR - September, 2013

Change the Weather History Date:

Wednesday, September 11, 2013

  Actual Average Record
Temperature  
Mean Temperature 67 °F 63 °F  
Max Temperature 78 °F 80 °F 98 °F (1998)
Min Temperature 56 °F 46 °F 27 °F (1989)
Degree Days  
Heating Degree Days 0 4  
Month to date heating degree days 0 33  
Since 1 July heating degree days 0 63  
Cooling Degree Days 2 3  
Month to date cooling degree days 114 40  
Year to date cooling degree days 882 687  
Growing Degree Days 17 (Base 50)    
Moisture  
Dew Point 56 °F    
Average Humidity 70    
Maximum Humidity 93    
Minimum Humidity 47    
Precipitation  
Precipitation 0.00 in 0.06 in 1.40 in (1947)
Month to date precipitation 0.47 0.65  
Year to date precipitation 12.83 14.52  
Sea Level Pressure  
Sea Level Pressure 30.18 in    
Wind  
Wind Speed 2 mph (West)    
Max Wind Speed 9 mph    
Max Gust Speed 12 mph    
Visibility 10 miles    
Events      
T = Trace of Precipitation, MM = Missing Value Source: NWS Daily Summary

Daily Weather History Graph

Daily Weather History Graph

Search for Another Location

Airport or City:

Trip Planner

Search our weather history database for the weather conditions in past years. The results will help you decide how hot, cold, wet, or windy it might be!

Date:

Astronomy

Sep. 11, 2013 Rise Set
Actual Time 6:28 AM MDT 7:08 PM MDT
Civil Twilight 5:59 AM MDT 7:37 PM MDT
Nautical Twilight 5:25 AM MDT 8:11 PM MDT
Astronomical Twilight 4:50 AM MDT 8:46 PM MDT
Moon 1:07 PM MDT (9/11) 10:57 PM MDT (9/11)
Length of Visible Light 13h 37m
Length of Day
12h 40m
Waxing Crescent, 39% of the Moon is Illuminated
Sep 11
Waxing Crescent
Sep 12
First Quarter
Sep 19
Full
Sep 26
Last Quarter
Oct 4
New

Hourly Weather History & Observations

Time (MDT) Temp. Dew Point Humidity Pressure Visibility Wind Dir Wind Speed Gust Speed Precip Events Conditions
12:53 AM 57.9 °F 53.1 °F 84% 30.14 in 10.0 mi Calm Calm - N/A   Overcast
1:53 AM 59.0 °F 54.0 °F 83% 30.15 in 10.0 mi Calm Calm - N/A   Clear
2:53 AM 59.0 °F 54.0 °F 83% 30.15 in 10.0 mi Calm Calm - N/A   Overcast
3:53 AM 59.0 °F 55.0 °F 87% 30.15 in 10.0 mi Calm Calm - N/A   Scattered Clouds
4:53 AM 57.9 °F 55.0 °F 90% 30.15 in 10.0 mi Calm Calm - N/A   Mostly Cloudy
5:53 AM 59.0 °F 55.9 °F 90% 30.15 in 10.0 mi SSE 4.6 mph - N/A   Overcast
6:53 AM 60.1 °F 54.0 °F 80% 30.18 in 10.0 mi Calm Calm - N/A   Mostly Cloudy
7:53 AM 63.0 °F 55.0 °F 75% 30.19 in 10.0 mi Calm Calm - N/A   Partly Cloudy
8:53 AM 64.9 °F 57.0 °F 75% 30.20 in 10.0 mi NW 3.5 mph - N/A   Clear
9:53 AM 69.1 °F 55.9 °F 63% 30.20 in 10.0 mi NNW 3.5 mph - N/A   Mostly Cloudy
10:53 AM 75.0 °F 57.9 °F 55% 30.20 in 10.0 mi Variable 4.6 mph - N/A   Mostly Cloudy
11:53 AM 75.9 °F 57.0 °F 52% 30.19 in 10.0 mi Calm Calm - N/A   Mostly Cloudy
12:53 PM 77.0 °F 57.0 °F 50% 30.18 in 10.0 mi NW 5.8 mph - N/A   Overcast
1:53 PM 75.9 °F 55.9 °F 50% 30.17 in 10.0 mi West 5.8 mph - N/A   Partly Cloudy
2:53 PM 77.0 °F 55.9 °F 48% 30.17 in 10.0 mi Variable 3.5 mph - N/A   Clear
3:53 PM 75.9 °F 55.9 °F 50% 30.16 in 10.0 mi West 3.5 mph - N/A   Overcast
4:53 PM 75.0 °F 57.0 °F 53% 30.17 in 10.0 mi West 3.5 mph - N/A   Overcast
5:53 PM 73.9 °F 55.9 °F 53% 30.16 in 10.0 mi West 4.6 mph - N/A   Overcast
6:53 PM 72.0 °F 57.0 °F 59% 30.17 in 10.0 mi WSW 3.5 mph - N/A   Overcast
7:53 PM 69.1 °F 57.9 °F 68% 30.19 in 10.0 mi WSW 4.6 mph - N/A   Scattered Clouds
8:53 PM 66.0 °F 57.9 °F 75% 30.21 in 10.0 mi Calm Calm - N/A   Partly Cloudy
9:53 PM 64.9 °F 57.0 °F 75% 30.21 in 10.0 mi Calm Calm - N/A   Overcast
10:53 PM 61.0 °F 55.9 °F 83% 30.21 in 10.0 mi Calm Calm - N/A   Clear
11:53 PM 59.0 °F 55.0 °F 87% 30.21 in 10.0 mi SSW 3.5 mph - N/A   Clear